ICETYJ LEBL-LPPT

Flight info

Callsign ICETYJ
Flight time N/A
Altitude 39000
Route SENIA7Q SENIA DCT DORMI DCT CRETA DCT NEXAS DCT DISVU DCT ADUXO N975 PALIO DCT AKOKI DCT GOTOR DCT TLD DCT NATPA DCT MELON DCT CCS DCT ELVAR DCT UPULO UPULO2A
Aircraft B38M/M-V/N

Departure

Time N/A
Airport Josep Tarradellas Barcelona-El Prat Airport (LEBL)

Arrival

Time 2026-05-05 12:45
Airport Lisbon Humberto Delgado Airport (LPPT)
Time Latitude Longitude Altitude Speed Heading
2026-05-05 11:38 40.40265 -2.44039 38982 ft 403 kts 249°
2026-05-05 11:38 40.39253 -2.47481 38986 ft 403 kts 249°
2026-05-05 11:39 40.37263 -2.54370 38980 ft 402 kts 254°
2026-05-05 11:39 40.35804 -2.61409 38982 ft 403 kts 254°
2026-05-05 11:40 40.34265 -2.68496 38983 ft 403 kts 253°
2026-05-05 11:40 40.32713 -2.75555 38979 ft 406 kts 253°
2026-05-05 11:41 40.31151 -2.82633 38985 ft 405 kts 253°
2026-05-05 11:41 40.29574 -2.89752 38984 ft 406 kts 253°
2026-05-05 11:42 40.27997 -2.96850 38980 ft 406 kts 253°
2026-05-05 11:42 40.26415 -3.03955 38983 ft 406 kts 253°
2026-05-05 11:43 40.24849 -3.11035 38988 ft 408 kts 253°
2026-05-05 11:43 40.23262 -3.18189 38978 ft 408 kts 253°
2026-05-05 11:44 40.21688 -3.25271 38979 ft 408 kts 253°
2026-05-05 11:44 40.20097 -3.32410 38974 ft 407 kts 253°
2026-05-05 11:45 40.18509 -3.39519 38980 ft 406 kts 253°
2026-05-05 11:45 40.16929 -3.46563 38984 ft 407 kts 254°
2026-05-05 11:46 40.15325 -3.53695 38987 ft 408 kts 253°
2026-05-05 11:46 40.13717 -3.60821 38987 ft 409 kts 253°
2026-05-05 11:47 40.12104 -3.67950 38991 ft 409 kts 253°
2026-05-05 11:47 40.10484 -3.75075 38986 ft 409 kts 253°
2026-05-05 11:48 40.08053 -3.85722 38976 ft 410 kts 254°
2026-05-05 11:48 40.06411 -3.92888 38982 ft 412 kts 254°
2026-05-05 11:49 40.04774 -4.00006 38988 ft 411 kts 254°
2026-05-05 11:49 40.03122 -4.07169 38984 ft 411 kts 253°
2026-05-05 11:50 40.01464 -4.14334 38989 ft 411 kts 253°
2026-05-05 11:50 39.99803 -4.21490 38990 ft 411 kts 253°
2026-05-05 11:51 39.98147 -4.28599 38986 ft 411 kts 253°
2026-05-05 11:51 39.96573 -4.35761 38991 ft 411 kts 255°
2026-05-05 11:52 39.95110 -4.42976 38994 ft 411 kts 255°
2026-05-05 11:52 39.93639 -4.50136 38987 ft 409 kts 255°
2026-05-05 11:53 39.92168 -4.57271 38988 ft 407 kts 255°
2026-05-05 11:53 39.90712 -4.64390 38995 ft 409 kts 256°
2026-05-05 11:54 39.89238 -4.71576 38994 ft 409 kts 256°
2026-05-05 11:54 39.87763 -4.78739 38993 ft 409 kts 256°
2026-05-05 11:55 39.86291 -4.85867 38994 ft 409 kts 255°
2026-05-05 11:55 39.84804 -4.93034 38993 ft 409 kts 256°
2026-05-05 11:56 39.83315 -5.00193 38991 ft 411 kts 256°
2026-05-05 11:56 39.81819 -5.07360 38999 ft 412 kts 256°
2026-05-05 11:57 39.80311 -5.14563 38996 ft 412 kts 256°
2026-05-05 11:57 39.78801 -5.21748 38998 ft 412 kts 256°
2026-05-05 11:58 39.77291 -5.28910 38998 ft 412 kts 256°
2026-05-05 11:58 39.75772 -5.36088 39000 ft 411 kts 256°
2026-05-05 11:59 39.74261 -5.43210 39002 ft 410 kts 256°
2026-05-05 11:59 39.72737 -5.50366 39012 ft 410 kts 256°
2026-05-05 12:00 39.71218 -5.57478 39012 ft 410 kts 256°
2026-05-05 12:00 39.69687 -5.64621 39016 ft 410 kts 256°
2026-05-05 12:01 39.68150 -5.71767 39016 ft 410 kts 256°
2026-05-05 12:01 39.66606 -5.78928 39016 ft 410 kts 256°
2026-05-05 12:02 39.65065 -5.86042 39012 ft 407 kts 256°
2026-05-05 12:02 39.63539 -5.93070 39016 ft 406 kts 256°
2026-05-05 12:03 39.62007 -6.00104 39023 ft 406 kts 256°
2026-05-05 12:03 39.60465 -6.07161 39023 ft 406 kts 255°
2026-05-05 12:04 39.58915 -6.14229 39030 ft 407 kts 256°
2026-05-05 12:04 39.57364 -6.21279 39033 ft 408 kts 256°
2026-05-05 12:05 39.55804 -6.28350 39033 ft 408 kts 256°
2026-05-05 12:05 39.54240 -6.35417 39035 ft 408 kts 256°
2026-05-05 12:06 39.52677 -6.42440 39039 ft 408 kts 254°
2026-05-05 12:06 39.50266 -6.49141 39019 ft 412 kts 247°
2026-05-05 12:07 39.47722 -6.55827 39046 ft 414 kts 246°
2026-05-05 12:07 39.45172 -6.62476 39043 ft 414 kts 246°
2026-05-05 12:08 39.42605 -6.69149 39042 ft 414 kts 246°
2026-05-05 12:08 39.40468 -6.74693 39050 ft 414 kts 246°
2026-05-05 12:09 39.37478 -6.82435 39023 ft 413 kts 246°
2026-05-05 12:09 39.35324 -6.87999 39038 ft 412 kts 246°
2026-05-05 12:10 39.32774 -6.94572 39055 ft 412 kts 246°
2026-05-05 12:10 39.30197 -7.01201 38967 ft 411 kts 246°
2026-05-05 12:11 39.28904 -7.04524 37885 ft 417 kts 246°
2026-05-05 12:11 39.27616 -7.07826 37483 ft 408 kts 246°
2026-05-05 12:11 39.26353 -7.11066 36580 ft 411 kts 247°
2026-05-05 12:11 39.25074 -7.14338 36059 ft 404 kts 247°
2026-05-05 12:12 39.23805 -7.17586 35235 ft 405 kts 247°
2026-05-05 12:12 39.22538 -7.20821 34667 ft 401 kts 247°
2026-05-05 12:12 39.21265 -7.23966 33889 ft 392 kts 246°
2026-05-05 12:12 39.19988 -7.27089 32551 ft 394 kts 246°
2026-05-05 12:13 39.18707 -7.30232 31383 ft 399 kts 246°
2026-05-05 12:13 39.17427 -7.33369 30544 ft 402 kts 246°
2026-05-05 12:13 39.16129 -7.36551 29766 ft 401 kts 246°
2026-05-05 12:13 39.14808 -7.39785 28998 ft 411 kts 246°
2026-05-05 12:14 39.13471 -7.43056 28330 ft 414 kts 246°
2026-05-05 12:14 39.12121 -7.46352 27653 ft 414 kts 246°
2026-05-05 12:14 39.10793 -7.49592 26969 ft 412 kts 246°
2026-05-05 12:14 39.09459 -7.52844 26314 ft 409 kts 246°
2026-05-05 12:15 39.08133 -7.56072 25763 ft 405 kts 246°
2026-05-05 12:15 39.06836 -7.59225 25516 ft 392 kts 246°
2026-05-05 12:15 39.05576 -7.62283 25264 ft 380 kts 246°
2026-05-05 12:15 39.04386 -7.65229 25010 ft 369 kts 248°
2026-05-05 12:16 39.03272 -7.68180 24673 ft 363 kts 248°
2026-05-05 12:16 39.02165 -7.71097 24363 ft 364 kts 248°
2026-05-05 12:16 39.01048 -7.74028 24020 ft 364 kts 248°
2026-05-05 12:16 38.99930 -7.76954 23676 ft 364 kts 248°
2026-05-05 12:17 38.98815 -7.79868 23270 ft 362 kts 248°
2026-05-05 12:17 38.97705 -7.82768 22909 ft 361 kts 248°
2026-05-05 12:17 38.96599 -7.85652 22562 ft 357 kts 248°
2026-05-05 12:17 38.95507 -7.88498 22227 ft 351 kts 248°
2026-05-05 12:18 38.94451 -7.91247 21903 ft 345 kts 249°
2026-05-05 12:18 38.93408 -7.93960 21564 ft 331 kts 249°
2026-05-05 12:18 38.92410 -7.96552 21284 ft 319 kts 249°
2026-05-05 12:18 38.91431 -7.99095 20972 ft 316 kts 249°
2026-05-05 12:19 38.90425 -8.01590 20644 ft 315 kts 243°
2026-05-05 12:19 38.89050 -8.03812 20308 ft 317 kts 237°
2026-05-05 12:19 38.87652 -8.05976 20036 ft 319 kts 237°
2026-05-05 12:19 38.86235 -8.08169 19745 ft 319 kts 237°
2026-05-05 12:20 38.84816 -8.10363 19445 ft 318 kts 237°
2026-05-05 12:20 38.83397 -8.12554 19121 ft 318 kts 236°
2026-05-05 12:20 38.81980 -8.14739 18829 ft 318 kts 236°
2026-05-05 12:20 38.80576 -8.16903 18526 ft 318 kts 236°
2026-05-05 12:21 38.79161 -8.19082 18209 ft 317 kts 236°
2026-05-05 12:21 38.77751 -8.21252 17894 ft 314 kts 236°
2026-05-05 12:21 38.76354 -8.23400 17590 ft 312 kts 236°
2026-05-05 12:21 38.74959 -8.25545 17278 ft 313 kts 236°
2026-05-05 12:22 38.73566 -8.27684 16980 ft 312 kts 236°
2026-05-05 12:22 38.72192 -8.29793 16690 ft 311 kts 236°
2026-05-05 12:22 38.70812 -8.31910 16390 ft 308 kts 236°
2026-05-05 12:22 38.69444 -8.34007 16099 ft 306 kts 236°
2026-05-05 12:23 38.68077 -8.36103 15800 ft 308 kts 236°
2026-05-05 12:23 38.66698 -8.38214 15505 ft 308 kts 236°
2026-05-05 12:23 38.65325 -8.40314 15220 ft 306 kts 236°
2026-05-05 12:23 38.63982 -8.42367 14945 ft 303 kts 236°
2026-05-05 12:24 38.62631 -8.44432 14659 ft 301 kts 236°
2026-05-05 12:24 38.61288 -8.46483 14365 ft 300 kts 236°
2026-05-05 12:24 38.59948 -8.48527 14086 ft 300 kts 236°
2026-05-05 12:24 38.58622 -8.50550 13777 ft 292 kts 236°
2026-05-05 12:25 38.57343 -8.52497 13461 ft 279 kts 235°
2026-05-05 12:25 38.56108 -8.54380 13215 ft 274 kts 235°
2026-05-05 12:25 38.54890 -8.56231 12952 ft 271 kts 234°
2026-05-05 12:25 38.53667 -8.58028 12658 ft 270 kts 234°
2026-05-05 12:26 38.52429 -8.59845 12404 ft 272 kts 234°
2026-05-05 12:26 38.51189 -8.61667 12168 ft 272 kts 234°
2026-05-05 12:26 38.49950 -8.63492 11913 ft 272 kts 235°
2026-05-05 12:26 38.48780 -8.65395 11602 ft 275 kts 235°
2026-05-05 12:27 38.47532 -8.67284 11240 ft 281 kts 234°
2026-05-05 12:27 38.46263 -8.69205 10840 ft 285 kts 234°
2026-05-05 12:27 38.45011 -8.71104 10524 ft 275 kts 234°
2026-05-05 12:27 38.43800 -8.72954 10240 ft 268 kts 234°
2026-05-05 12:28 38.42636 -8.74734 10061 ft 262 kts 234°
2026-05-05 12:28 38.41467 -8.76523 9683 ft 264 kts 234°
2026-05-05 12:28 38.40289 -8.78342 9264 ft 267 kts 234°
2026-05-05 12:28 38.39108 -8.80170 8995 ft 265 kts 234°
2026-05-05 12:29 38.37950 -8.81967 8849 ft 260 kts 234°
2026-05-05 12:29 38.36810 -8.83740 8554 ft 259 kts 234°
2026-05-05 12:29 38.35674 -8.85512 8320 ft 257 kts 234°
2026-05-05 12:29 38.34554 -8.87256 8186 ft 258 kts 234°
2026-05-05 12:30 38.33418 -8.89024 8067 ft 258 kts 234°
2026-05-05 12:30 38.32285 -8.90792 7932 ft 257 kts 234°
2026-05-05 12:30 38.31171 -8.92543 7801 ft 250 kts 234°
2026-05-05 12:30 38.30246 -8.94339 7691 ft 236 kts 253°
2026-05-05 12:31 38.30101 -8.96330 7544 ft 220 kts 283°
2026-05-05 12:31 38.30475 -8.98172 7415 ft 210 kts 289°
2026-05-05 12:31 38.30934 -8.99914 7282 ft 206 kts 295°
2026-05-05 12:31 38.31490 -9.01550 7185 ft 195 kts 297°
2026-05-05 12:32 38.32004 -9.03054 7112 ft 180 kts 297°
2026-05-05 12:32 38.32482 -9.04468 7020 ft 167 kts 297°
2026-05-05 12:32 38.32930 -9.05798 6922 ft 164 kts 297°
2026-05-05 12:32 38.33396 -9.07181 6914 ft 175 kts 297°
2026-05-05 12:33 38.33887 -9.08630 6911 ft 181 kts 297°
2026-05-05 12:33 38.34371 -9.10096 6878 ft 182 kts 297°
2026-05-05 12:33 38.34844 -9.11587 6831 ft 181 kts 297°
2026-05-05 12:33 38.35324 -9.13083 6784 ft 182 kts 296°
2026-05-05 12:34 38.35817 -9.14572 6731 ft 183 kts 297°
2026-05-05 12:34 38.36307 -9.16065 6678 ft 182 kts 297°
2026-05-05 12:34 38.36775 -9.17540 6483 ft 178 kts 298°
2026-05-05 12:34 38.37433 -9.18851 6099 ft 177 kts 314°
2026-05-05 12:35 38.38302 -9.19954 5766 ft 176 kts 320°
2026-05-05 12:35 38.39208 -9.21006 5461 ft 174 kts 321°
2026-05-05 12:35 38.40092 -9.22018 5189 ft 171 kts 323°
2026-05-05 12:35 38.41000 -9.22977 4967 ft 166 kts 323°
2026-05-05 12:36 38.41863 -9.23891 4877 ft 158 kts 324°
2026-05-05 12:36 38.42728 -9.24816 4842 ft 165 kts 324°
2026-05-05 12:36 38.43635 -9.25763 4810 ft 169 kts 323°
2026-05-05 12:36 38.44548 -9.26697 4764 ft 170 kts 324°
2026-05-05 12:37 38.45462 -9.27648 4707 ft 169 kts 323°
2026-05-05 12:37 38.46392 -9.28590 4661 ft 171 kts 323°
2026-05-05 12:37 38.47430 -9.29273 4578 ft 168 kts 353°
2026-05-05 12:37 38.48571 -9.29087 4563 ft 167 kts 15°
2026-05-05 12:38 38.49666 -9.28633 4585 ft 166 kts 17°
2026-05-05 12:38 38.50755 -9.28126 4589 ft 166 kts 18°
2026-05-05 12:38 38.51851 -9.27581 4552 ft 169 kts 20°
2026-05-05 12:38 38.52923 -9.27029 4521 ft 168 kts 20°
2026-05-05 12:39 38.54005 -9.26462 4437 ft 167 kts 20°
2026-05-05 12:39 38.55064 -9.25904 4340 ft 162 kts 20°
2026-05-05 12:39 38.56090 -9.25361 4239 ft 161 kts 20°
2026-05-05 12:39 38.57116 -9.24814 4148 ft 159 kts 20°
2026-05-05 12:40 38.58139 -9.24270 4054 ft 157 kts 20°
2026-05-05 12:40 38.59153 -9.23731 3974 ft 158 kts 21°
2026-05-05 12:40 38.60175 -9.23185 3801 ft 160 kts 21°
2026-05-05 12:40 38.61203 -9.22637 3607 ft 159 kts 20°
2026-05-05 12:41 38.62208 -9.22101 3440 ft 157 kts 20°
2026-05-05 12:41 38.63189 -9.21577 3246 ft 149 kts 19°
2026-05-05 12:41 38.64131 -9.21071 2973 ft 146 kts 20°
2026-05-05 12:41 38.65065 -9.20575 2763 ft 144 kts 19°
2026-05-05 12:42 38.65977 -9.20086 2602 ft 139 kts 17°
2026-05-05 12:42 38.66854 -9.19620 2429 ft 135 kts 19°
2026-05-05 12:42 38.67726 -9.19152 2208 ft 137 kts 17°
2026-05-05 12:42 38.68601 -9.18687 2002 ft 137 kts 17°
2026-05-05 12:43 38.69475 -9.18223 1807 ft 134 kts 18°
2026-05-05 12:43 38.70346 -9.17758 1694 ft 137 kts 15°
2026-05-05 12:43 38.71260 -9.17274 1521 ft 145 kts 17°
2026-05-05 12:43 38.72167 -9.16782 1322 ft 142 kts 17°
2026-05-05 12:44 38.73074 -9.16290 1084 ft 140 kts 17°
2026-05-05 12:44 38.73968 -9.15820 870 ft 137 kts 17°
2026-05-05 12:44 38.74839 -9.15364 665 ft 136 kts 19°
2026-05-05 12:44 38.75696 -9.14889 577 ft 131 kts 17°
2026-05-05 12:45 38.76554 -9.14432 407 ft 139 kts 17°
2026-05-05 12:45 38.77413 -9.13983 353 ft 115 kts 22°
2026-05-05 12:45 38.77809 -9.13766 353 ft 23 kts 23°
2026-05-05 12:45 38.77876 -9.13730 351 ft 0 kts 22°
2026-05-05 12:47 38.70493 -9.17675 2098 ft 137 kts 24°
2026-05-05 12:48 38.71281 -9.17148 1674 ft 130 kts 15°
2026-05-05 12:48 38.72149 -9.16772 1402 ft 137 kts 14°
2026-05-05 12:49 38.73029 -9.16333 1140 ft 135 kts 17°
2026-05-05 12:49 38.73893 -9.15858 981 ft 135 kts 19°
2026-05-05 12:49 38.74790 -9.15388 776 ft 140 kts 20°
2026-05-05 12:49 38.75676 -9.14889 595 ft 140 kts 17°
2026-05-05 12:50 38.76564 -9.14423 401 ft 138 kts 18°
2026-05-05 12:50 38.77394 -9.13997 355 ft 105 kts 22°
2026-05-05 12:50 38.77891 -9.13721 347 ft 52 kts 22°
2026-05-05 12:50 38.78155 -9.13580 355 ft 34 kts 28°
2026-05-05 12:51 38.78198 -9.13418 352 ft 18 kts 144°
2026-05-05 12:51 38.78156 -9.13407 349 ft 0 kts 177°
2026-05-05 12:51 38.78149 -9.13407 349 ft 3 kts 177°
2026-05-05 12:51 38.78115 -9.13408 349 ft 8 kts 183°
2026-05-05 12:52 38.78032 -9.13413 352 ft 16 kts 181°
2026-05-05 12:52 38.77913 -9.13387 353 ft 19 kts 170°
2026-05-05 12:52 38.77837 -9.13364 349 ft 12 kts 165°
2026-05-05 12:52 38.77762 -9.13344 349 ft 9 kts 166°
2026-05-05 12:53 38.77752 -9.13341 349 ft 1 kts 165°
2026-05-05 12:53 38.77731 -9.13327 353 ft 6 kts 143°
2026-05-05 12:53 38.77707 -9.13293 357 ft 6 kts 122°
2026-05-05 12:53 38.77691 -9.13258 354 ft 5 kts 122°
2026-05-05 12:54 38.77678 -9.13227 349 ft 0 kts 106°
2026-05-05 12:54 38.77677 -9.13224 349 ft 0 kts 105°